Regional Weather Roundup
Issued by NWS

Home | Current Version | Previous Version | Text Only | Print | Product List | Glossary Off
Versions: 1 2 3 4 5 6 7 8 9 10 11 12 13 14 15 16 17 18 19 20 21 22 23 24 25 26 27 28 29 30 31 32 33 34 35 36 37 38 39 40 41 42 43 44 45 46 47 48 49 50

000
ASUS43 KTOP 180208
RWRKS

WEATHER ROUNDUP FOR KANSAS
NATIONAL WEATHER SERVICE GOODLAND KS
900 PM CDT THU APR 17 2014

NOTE:  "FAIR" INDICATES FEW OR NO CLOUDS BELOW 12,000 FEET WITH NO
SIGNIFICANT WEATHER AND/OR OBSTRUCTIONS TO VISIBILITY.

KSZ001>006-013>018-027>032-041>047-180300-
NORTHWEST KANSAS

CITY           SKY/WX    TMP DP  RH WIND       PRES   REMARKS
GOODLAND       CLEAR     46  37  71 S16       30.13S
HAYS           PTCLDY    46  27  46 SE10      30.21S
HILL CITY      CLEAR     50  30  46 S7        30.19R
RUSSELL        CLEAR     47  29  49 E9        30.21R
$$

KSZ061>065-074>080-084>089-180300-
SOUTHWEST KANSAS

CITY           SKY/WX    TMP DP  RH WIND       PRES   REMARKS
DODGE CITY     CLEAR     45  39  79 S5        30.23R
ELKHART          N/A     44  32  63 SE12        N/A
GARDEN CITY    PTCLDY    44  40  85 S9        30.22R
GREAT BEND     CLEAR     46  28  49 SE7       30.23R
LIBERAL        CLOUDY    46  37  71 SE6       30.24R
PRATT          CLEAR     46  36  66 E3        30.26R
$$

KSZ066>073-081>083-090>101-180300-
SOUTHEAST KANSAS

CITY           SKY/WX    TMP DP  RH WIND       PRES   REMARKS
CHANUTE        MOCLDY    44  37  76 N5        30.27R
COFFEYVILLE    PTCLDY    44  39  82 N8        30.24F
HUTCHINSON     CLEAR     42  32  67 SE6       30.25R
MEDICINE LODGE   N/A     45  39  79 S5        30.25R
NEWTON         CLEAR     41  30  65 SE7       30.28S
PARSONS        PTCLDY    44  36  73 N3        30.26S
WICHITA INTL   PTCLDY    44  36  73 SE7       30.26R
WICHITA JABRA  CLEAR     43  35  73 E5        30.26R HAZE
WICHITA MCCONL CLEAR     46  39  76 E3        30.26R
WINFIELD       CLEAR     45  35  68 NE6       30.27R HAZE
$$

KSZ007>012-019>026-033>040-048>060-102>105-180300-
NORTHEAST KANSAS

CITY           SKY/WX    TMP DP  RH WIND       PRES   REMARKS
CONCORDIA      CLEAR     43  27  53 SE6       30.23R
EMPORIA        CLEAR     42  32  67 SE3       30.27R HAZE
LAWRENCE       CLEAR     41  34  76 SE3       30.28R
MANHATTAN      CLOUDY    47  31  53 SE3       30.25R HAZE
OLATHE IND     MOCLDY    42  34  73 S3        30.29R
OLATHE EXE     PTCLDY    42  34  73 S3        30.28R
SALINA         CLEAR     49  29  46 SE5       30.25R
TOPEKA BILLARD CLEAR     47  34  60 S3        30.28R
TOPEKA FORBES  CLEAR     43  33  68 S5        30.27R
$$



USA.gov is the U.S. government's official web portal to all federal, state and local government web resources and services.